Regional Weather Roundup
Issued by NWS

Home | Current Version | Previous Version | Text Only | Print | Product List | Glossary On
Versions: 1 2 3 4 5 6 7 8 9 10 11 12 13 14 15 16 17 18 19 20 21 22 23 24 25 26 27 28 29 30 31 32 33 34 35 36 37 38 39 40 41 42 43 44 45 46 47 48 49 50
000
ASUS46 KSEW 010010
RWRWA

WASHINGTON REGIONAL WEATHER ROUNDUP
NATIONAL WEATHER SERVICE SEATTLE WA
400 PM PST SAT FEB 28 2015

NOTE:"FAIR" INDICATES FEW OR NO CLOUDS BELOW 12,000 FEET WITH NO
SIGNIFICANT WEATHER AND/OR OBSTRUCTIONS TO VISIBILITY.

WAZ505-507>509-010100-
SEATTLE, TACOMA, EVERETT, AND VICINITY

CITY           SKY/WX    TMP DP  RH WIND       PRES   REMARKS
EVERETT        SUNNY     50  25  37 N9        30.19S
6HR MIN TEMP:  46; 6HR MAX TEMP:  52;

BOEING FIELD   SUNNY     55  24  30 W8        30.18S
6HR MIN TEMP:  50; 6HR MAX TEMP:  57;

RENTON         SUNNY     53  24  32 NW9       30.18S
6HR MIN TEMP:  47; 6HR MAX TEMP:  53;

SEATAC AIRPORT SUNNY     54  24  31 N12       30.18S
6HR MIN TEMP:  48; 6HR MAX TEMP:  54;

JBLM-MCCHORD   SUNNY     53  25  33 NE7       30.17F
6HR MIN TEMP:  48; 6HR MAX TEMP:  54;

PUYALLUP       FAIR      54  27  35 CALM      30.17S
BREMERTON      SUNNY     54  21  28 NE9       30.20S
6HR MIN TEMP:  48; 6HR MAX TEMP:  54;

JBLM-FT LEWIS  SUNNY     53  27  35 N7        30.17S
6HR MIN TEMP:  48; 6HR MAX TEMP:  54;

TACOMA NARROWS SUNNY     52  21  29 N9        30.18S
6HR MIN TEMP:  48; 6HR MAX TEMP:  52;

$$

WAZ001-503-506-510-514-515-010100-
NORTH INTERIOR

CITY           SKY/WX    TMP DP  RH WIND       PRES   REMARKS
BELLINGHAM     SUNNY     55  17  22 N8        30.18S
6HR MIN TEMP:  47; 6HR MAX TEMP:  56;

FRIDAY HARBOR  SUNNY     53  19  26 VRB3      30.22R
6HR MIN TEMP:  48; 6HR MAX TEMP:  53;

EASTSOUND      SUNNY     48  32  53 CALM      30.19S
PORT ANGELES   SUNNY     52  21  29 NE5       30.21S
6HR MIN TEMP:  48; 6HR MAX TEMP:  54;

NAS WHIDBEY    SUNNY     52  36  54 W14       30.21R
6HR MIN TEMP:  50; 6HR MAX TEMP:  55;

ARLINGTON      SUNNY     54  25  32 NW8       30.20R
6HR MIN TEMP:  46; 6HR MAX TEMP:  54;

BURLINGTON     SUNNY     54  34  47 NW12      30.19S
$$

WAZ020-022-039-040-504-511-512-010100-
SOUTHWEST INTERIOR

CITY           SKY/WX    TMP DP  RH WIND       PRES   REMARKS
SHELTON        SUNNY     57  17  21 VRB6      30.15S
6HR MIN TEMP:  51; 6HR MAX TEMP:  57;

OLYMPIA        SUNNY     55  23  28 NE5       30.17F
6HR MIN TEMP:  50; 6HR MAX TEMP:  55;

CHEHALIS       FAIR      55  27  33 N9        30.16S
KELSO          SUNNY     57  30  35 NW8       30.16F
6HR MIN TEMP:  46; 6HR MAX TEMP:  57;

VANCOUVER      SUNNY     56  26  31 SW6       30.14R
6HR MIN TEMP:  50; 6HR MAX TEMP:  58;

SCAPPOOSE, OR  SUNNY     57  29  34 CALM      30.13S
6HR MIN TEMP:  50; 6HR MAX TEMP:  58;

PORTLAND, OR   MOSUNNY   56  25  30 E16       30.14R
6HR MIN TEMP:  50; 6HR MAX TEMP:  57;

$$

WAZ021-516-517-010100-
WASHINGTON COAST

CITY           SKY/WX    TMP DP  RH WIND       PRES   REMARKS
FORKS          SUNNY     58  19  22 N10       30.17R
6HR MIN TEMP:  50; 6HR MAX TEMP:  59;

HOQUIAM        SUNNY     55  38  52 SW10      30.16S HAZE
6HR MIN TEMP:  50; 6HR MAX TEMP:  60;

ASTORIA, OR    SUNNY     58  30  34 NE8       30.13F
6HR MIN TEMP:  50; 6HR MAX TEMP:  58;

$$

WAZ019-023-024-040-518-519-010100-
CASCADE MOUNTAINS AND COLUMBIA GORGE

CITY           SKY/WX    TMP DP  RH WIND       PRES   REMARKS
TROUTDALE, OR  SUNNY     56  22  26 E14       30.13S
6HR MIN TEMP:  52; 6HR MAX TEMP:  57;

THE DALLES, OR SUNNY     55  20  25 E9        30.16F
6HR MIN TEMP:  49; 6HR MAX TEMP:  55;

$$

WAZ026-027-041>044-520-521-010100-
EAST SLOPES

CITY           SKY/WX    TMP DP  RH WIND       PRES   REMARKS
OMAK           SUNNY     50  12  21 N14       30.15F
6HR MIN TEMP:  41; 6HR MAX TEMP:  50;

WENATCHEE      SUNNY     51  14  22 SW6       30.14F
6HR MIN TEMP:  43; 6HR MAX TEMP:  51;

ELLENSBURG     SUNNY     51  12  21 SW6       30.13F
6HR MIN TEMP:  47; 6HR MAX TEMP:  52;

YAKIMA         SUNNY     54  13  19 N8        30.15F
6HR MIN TEMP:  48; 6HR MAX TEMP:  55;

$$

WAZ028-034-035-010100-
COLUMBIA BASIN

CITY           SKY/WX    TMP DP  RH WIND       PRES   REMARKS
EPHRATA        SUNNY     50  13  22 N3        30.14S
6HR MIN TEMP:  44; 6HR MAX TEMP:  51;

MOSES LAKE     SUNNY     50  18  28 N9        30.16R
6HR MIN TEMP:  44; 6HR MAX TEMP:  51;

PASCO          SUNNY     52  11  19 N14       30.16S
6HR MIN TEMP:  46; 6HR MAX TEMP:  53;

HERMISTON, OR  SUNNY     52  11  19 NE10      30.15R
6HR MIN TEMP:  44; 6HR MAX TEMP:  52;

$$

WAZ036>038-010100-
NORTHEAST WASHINGTON

CITY           SKY/WX    TMP DP  RH WIND       PRES   REMARKS
SPOKANE GEIGER SUNNY     42   3  19 N16       30.10R
6HR MIN TEMP:  34; 6HR MAX TEMP:  43;

SPOKANE FELTS  SUNNY     45   4  18 N10       30.13R
6HR MIN TEMP:  38; 6HR MAX TEMP:  46;

FAIRCHILD AFB  SUNNY     41   3  20 N10       30.10R
6HR MIN TEMP:  34; 6HR MAX TEMP:  42; 6HR PCP: TRACE;

COEURDALENE,ID SUNNY     41   7  24 N16       30.10R
6HR MIN TEMP:  34; 6HR MAX TEMP:  43;

DEER PARK      SUNNY     43   1  17 VRB5      30.12S
6HR MIN TEMP:  36; 6HR MAX TEMP:  44;

$$

WAZ029>033-010100-
SOUTHEAST WASHINGTON

CITY           SKY/WX    TMP DP  RH WIND       PRES   REMARKS
PULLMAN        SUNNY     44  11  26 N10       30.07S
6HR MIN TEMP:  37; 6HR MAX TEMP:  45;

LEWISTON, ID   SUNNY     47  19  33 W8        30.07S
6HR MIN TEMP:  41; 6HR MAX TEMP:  48;

WALLA WALLA    SUNNY     49  16  26 N6        30.11R
6HR MIN TEMP:  39; 6HR MAX TEMP:  50;

PENDLETON, OR  SUNNY     46  15  28 N9        30.11R
6HR MIN TEMP:  37; 6HR MAX TEMP:  47;

$$



USA.gov is the U.S. government's official web portal to all federal, state and local government web resources and services.